Precipitable_Water
0.51 0.53 0.54 0.55 0.55 0.55 0.55 0.56 0.54 0.54 0.53 0.52 0.51 0.51 0.51 0.51 0.50 0.49 0.49 0.48 0.47 0.46 0.46 0.46 0.46 0.45 0.44 0.45 0.44 0.45 0.45 0.44
0.52 0.53 0.56 0.56 0.58 0.57 0.58 0.55 0.54 0.53 0.52 0.51 0.51 0.48 0.48 0.47 0.46 0.47 0.46 0.46 0.45 0.44 0.43 0.43 0.44 0.43 0.44 0.45 0.45 0.43 0.45 0.49
0.51 0.53 0.55 0.57 0.58 0.60 0.58 0.55 0.53 0.52 0.52 0.50 0.49 0.47 0.44 0.42 0.42 0.42 0.43 0.42 0.42 0.42 0.41 0.42 0.43 0.43 0.45 0.46 0.45 0.43 0.44 0.48
0.50 0.54 0.57 0.59 0.59 0.60 0.58 0.54 0.51 0.51 0.51 0.49 0.46 0.43 0.38 0.35 0.35 0.35 0.36 0.36 0.37 0.39 0.39 0.40 0.41 0.43 0.43 0.45 0.47 0.45 0.41 0.47
0.51 0.52 0.55 0.58 0.60 0.62 0.60 0.57 0.54 0.50 0.48 0.43 0.39 0.33 0.29 0.31 0.31 0.32 0.32 0.32 0.32 0.35 0.37 0.38 0.38 0.41 0.42 0.44 0.47 0.47 0.46 0.42
0.51 0.54 0.58 0.61 0.63 0.62 0.61 0.59 0.52 0.48 0.45 0.42 0.37 0.31 0.30 0.29 0.29 0.28 0.29 0.29 0.28 0.28 0.32 0.34 0.34 0.37 0.40 0.43 0.45 0.46 0.47 0.45
0.56 0.60 0.62 0.63 0.67 0.66 0.59 0.54 0.51 0.47 0.42 0.38 0.35 0.32 0.29 0.27 0.26 0.25 0.25 0.24 0.24 0.24 0.25 0.28 0.31 0.32 0.36 0.40 0.43 0.45 0.46 0.47
0.56 0.58 0.61 0.63 0.57 0.56 0.55 0.53 0.49 0.45 0.39 0.37 0.32 0.29 0.28 0.27 0.27 0.26 0.25 0.23 0.22 0.21 0.21 0.21 0.23 0.28 0.33 0.35 0.38 0.42 0.44 0.45
0.55 0.56 0.57 0.56 0.55 0.53 0.52 0.51 0.46 0.42 0.38 0.33 0.31 0.30 0.28 0.27 0.27 0.27 0.25 0.23 0.22 0.22 0.21 0.20 0.20 0.24 0.27 0.28 0.31 0.37 0.42 0.44
0.51 0.54 0.53 0.51 0.52 0.52 0.51 0.47 0.42 0.39 0.36 0.33 0.32 0.30 0.28 0.28 0.28 0.28 0.26 0.24 0.22 0.21 0.19 0.18 0.19 0.18 0.20 0.22 0.23 0.28 0.36 0.43
0.48 0.50 0.51 0.52 0.54 0.53 0.50 0.45 0.39 0.36 0.33 0.32 0.33 0.32 0.33 0.32 0.28 0.26 0.25 0.23 0.22 0.20 0.19 0.17 0.18 0.18 0.18 0.18 0.18 0.20 0.26 0.35
0.47 0.47 0.48 0.51 0.53 0.53 0.49 0.43 0.36 0.33 0.34 0.34 0.36 0.38 0.37 0.31 0.29 0.24 0.22 0.21 0.21 0.19 0.18 0.17 0.16 0.16 0.16 0.16 0.16 0.17 0.17 0.19
0.48 0.48 0.46 0.46 0.48 0.48 0.46 0.43 0.38 0.38 0.41 0.39 0.39 0.39 0.33 0.31 0.26 0.22 0.20 0.21 0.22 0.21 0.20 0.17 0.15 0.15 0.15 0.15 0.14 0.15 0.16 0.17
0.44 0.45 0.45 0.48 0.51 0.49 0.44 0.41 0.40 0.42 0.40 0.42 0.38 0.35 0.34 0.29 0.24 0.21 0.20 0.20 0.21 0.21 0.20 0.18 0.15 0.15 0.15 0.15 0.15 0.15 0.15 0.16
0.41 0.40 0.42 0.49 0.52 0.51 0.44 0.40 0.40 0.45 0.44 0.36 0.34 0.33 0.28 0.26 0.25 0.21 0.18 0.18 0.19 0.20 0.20 0.19 0.18 0.16 0.15 0.16 0.16 0.16 0.16 0.16
0.37 0.40 0.46 0.50 0.52 0.50 0.47 0.43 0.44 0.46 0.36 0.35 0.33 0.25 0.24 0.22 0.21 0.18 0.16 0.17 0.19 0.20 0.20 0.20 0.20 0.19 0.18 0.17 0.17 0.17 0.17 0.17
0.47 0.49 0.50 0.51 0.51 0.49 0.46 0.44 0.49 0.39 0.34 0.31 0.25 0.22 0.22 0.21 0.21 0.19 0.18 0.18 0.19 0.18 0.19 0.19 0.19 0.20 0.21 0.20 0.20 0.19 0.19 0.18
0.49 0.51 0.52 0.53 0.52 0.47 0.43 0.48 0.41 0.35 0.32 0.25 0.22 0.21 0.22 0.22 0.19 0.18 0.18 0.19 0.20 0.21 0.22 0.22 0.22 0.22 0.21 0.21 0.20 0.20 0.20 0.20
0.50 0.51 0.52 0.52 0.50 0.43 0.44 0.38 0.33 0.30 0.25 0.21 0.22 0.23 0.23 0.22 0.21 0.20 0.19 0.20 0.21 0.21 0.21 0.20 0.19 0.20 0.19 0.19 0.20 0.21 0.21 0.23
Wind_Speed
21 21 21 21 21 21 22 23 23 23 24 24 25 26 27 28 29 30 31 32 34 35 36 37 38 38 39 40 41 41 43 44
24 23 22 22 22 22 23 23 24 24 24 25 26 26 26 27 28 29 30 31 32 33 35 36 37 37 38 39 40 41 40 41
26 25 24 23 22 22 22 22 22 23 23 24 24 25 25 27 28 29 30 30 31 32 33 34 35 36 37 38 38 39 39 38
27 25 24 23 22 23 22 22 22 23 23 23 23 25 26 27 28 28 29 29 30 30 31 32 32 33 34 35 35 36 37 36
26 24 23 22 22 22 23 22 23 23 23 23 24 25 26 26 26 27 27 28 29 29 30 30 30 30 31 31 32 32 34 34
24 23 22 22 22 22 22 23 23 23 23 23 23 23 23 24 24 25 25 26 26 27 27 27 27 28 28 28 28 29 30 31
21 21 20 21 21 22 23 22 22 22 22 21 21 22 22 23 24 24 25 25 25 25 25 25 25 25 26 26 25 25 26 27
18 18 19 21 20 20 20 20 19 20 20 20 20 21 22 23 23 24 24 24 24 24 24 23 23 23 23 24 24 23 23 22
16 18 19 19 18 18 18 18 17 18 19 19 19 21 22 22 22 22 21 21 22 21 21 20 20 20 21 21 21 22 21 20
18 17 17 16 17 18 17 18 18 18 18 19 19 20 20 20 20 19 20 21 21 19 19 18 18 18 19 19 20 21 21 20
16 17 18 18 18 18 17 17 17 18 18 19 19 19 19 19 18 19 20 19 18 17 16 16 16 17 17 18 19 19 19 20
18 18 19 20 20 20 19 18 18 18 18 18 17 17 17 17 17 18 17 16 16 15 15 15 15 15 16 17 17 18 18 18
20 20 20 20 20 19 19 18 18 17 18 16 15 15 15 16 16 16 16 15 15 15 15 15 15 15 15 16 16 17 17 18
22 21 21 21 21 20 19 19 18 17 16 14 14 14 14 14 14 14 14 14 14 14 14 14 15 15 15 15 15 15 16 17
24 23 23 21 20 19 18 17 16 15 13 13 12 12 11 12 12 13 13 13 13 13 14 14 14 14 14 14 14 15 15 16
24 21 21 20 19 18 18 16 14 13 11 10 10 10 10 10 11 11 12 12 12 12 12 13 13 13 13 13 14 14 14 15
19 19 19 19 18 17 16 14 13 11 10 9 8 8 8 9 10 10 10 10 11 11 11 12 12 13 13 13 13 13 14 14
17 18 18 18 17 15 14 13 11 11 9 8 8 7 8 8 8 8 9 9 9 10 11 11 12 12 13 13 13 13 14 14
15 15 16 15 14 13 13 12 11 10 9 8 8 7 7 7 8 8 8 9 9 10 10 10 11 12 12 13 13 13 14 15
Wind_Direction
258 263 268 274 280 284 285 286 288 288 288 290 291 293 294 294 294 295 295 295 295 294 293 291 290 288 285 283 281 279 278 276
261 264 267 272 278 282 284 287 289 288 289 290 292 294 296 297 297 298 298 299 300 299 297 295 293 290 288 285 283 281 279 278
261 265 267 273 276 280 285 289 291 292 292 292 293 294 297 300 301 301 302 302 303 302 302 300 298 295 292 288 285 283 280 280
259 261 264 269 274 278 285 289 292 293 294 293 294 296 298 301 302 302 303 305 306 306 307 306 304 301 297 293 289 286 281 280
256 255 260 265 270 278 285 289 291 293 294 295 297 300 301 302 304 304 305 307 308 309 310 311 312 310 307 301 296 290 285 280
250 252 256 261 269 277 283 288 290 292 293 296 300 304 305 306 307 308 308 310 311 310 311 312 314 315 315 311 304 297 291 283
250 253 256 262 271 278 283 285 289 292 296 298 302 305 306 308 310 311 311 311 312 313 313 315 317 320 322 322 317 309 299 291
247 252 260 268 272 277 283 287 289 291 294 297 302 305 308 309 309 311 312 314 314 314 315 315 318 322 324 327 329 325 317 304
253 255 261 267 271 276 281 283 285 289 294 297 301 304 308 309 309 311 312 315 316 317 318 320 322 325 330 332 335 338 336 326
263 262 262 268 275 278 280 282 286 290 292 293 299 304 306 308 309 310 313 315 315 317 319 322 324 328 333 339 341 344 346 344
264 262 265 272 276 278 282 282 286 289 291 293 295 299 303 306 308 310 314 316 319 321 323 326 328 331 334 338 343 347 351 354
262 266 269 269 273 276 278 280 285 286 289 294 295 297 300 305 310 312 315 318 322 324 327 328 331 334 337 340 344 348 352 354
266 265 267 268 271 274 273 277 280 282 286 290 294 295 299 305 311 316 318 319 322 324 327 329 332 335 338 342 345 349 353 355
265 264 266 267 270 271 272 274 276 277 279 285 290 294 297 304 311 317 321 322 324 326 327 329 332 334 337 340 343 347 351 355
263 264 262 263 265 267 269 271 270 272 274 279 287 295 299 304 309 317 321 324 326 328 330 330 333 333 336 339 343 346 349 352
256 254 255 258 261 264 265 261 262 265 268 274 282 292 302 309 316 321 326 329 331 334 337 339 340 340 340 342 345 348 350 353
250 250 250 253 257 258 255 250 251 252 259 269 278 289 301 311 318 323 328 333 337 342 347 349 348 348 349 348 349 350 352 356
248 248 247 252 252 246 238 237 240 244 252 263 269 282 297 308 318 327 333 337 340 344 347 349 352 352 353 354 353 353 353 353
253 248 245 242 236 229 227 229 232 239 248 254 263 276 289 301 308 317 325 333 338 342 346 348 349 352 353 350 347 346 348 347